CZ-6A DEB

Satellite information

Favourite Embed

Satellite Type and Status

DEBRISIN ORBIT

Key statistics

Satellite CZ-6A DEB at a glance.

Uptime

393

Days in orbit

Revolutions

≈ 15.0

Per day

Orbit

LEO

Low Earth Orbit

Inclination

89.3

Latest

Satellite identification and parameters

Extended collection of information and parameters for CZ-6A DEB.

Object identification

Identified? True

Debris? True

Object name: CZ-6A DEB

International designator: 2024-140FM

Object number (NORAD): 60786

Object ID (CCSDS): 60786

Country: PEOPLES REPUBLIC OF CHINA (PRC)

Current information (Y/N): Y

RCS size: MEDIUM

Orbital parameters

Period: 95.84 minutes

Inclination: 89.2534 deg

SMA: 6937.31 km

Apoapsis: 662.214 km

Periapsis: 456.137 km

RAAN: 315.2959 deg

Eccentricy: 0.01485285

Argument of periapsis: 28.375 deg

Mean anomaly: 332.5472 deg

Mean motion: 15.02505523 rev/day

Mean motion (dot): 0.00073444 rev/day2

B* drag term: 0.0043156664 1/REarth

Two-line elements (TLE)

Creation date: Sept. 3, 2025, 2:21 a.m.

Reference frame: TEME

Reference center: EARTH

Epoch: Sept. 2, 2025, 10:12 p.m. UTC

TLE line 0: 0 CZ-6A DEB

TLE line 1: 1 60786U 24140FM 25245.92506585 .00073444 00000-0 43157-2 0 9990

TLE line 2: 2 60786 89.2534 315.2959 0148528 28.3750 332.5472 15.02505523 57205

Live tracking on map

Real-time ground track for satellite CZ-6A DEB.

In-orbit conjunctions

A list of the most updated potential collisions computed for object CZ-6A DEB.

Target Orbit TCA Probability of collision Miss distance Type
ALOS SSO 2025-08-07 09:13:59 0.0001799362 442.0 (m) PAYLOAD
NOAA 16 DEB SSO 2025-02-02 17:17:51 0.0001032871 413.0 (m) DEBRIS
SL-14 R/B LEO 2025-01-05 23:14:54 0.0001624026 109.0 (m) ROCKET BODY
CZ-6A DEB SSO 2024-11-15 17:37:16 0.0001531338 120.0 (m) DEBRIS
FENGYUN 1C DEB SSO 2024-09-18 06:15:40 0.0001404285 921.0 (m) DEBRIS

Associated space launch

18 Low Earth Orbit communication satellites with Ku, Q and V band payloads for the G60 constellation operated by Shanghai Spacecom Satellite Technology (SSST) with funding backed by the Shanghai local government. Initial constellation will consist of 1296 satellites by 2027 with long term plans to expand it to 12000 satellites.

CZ-6A DEB was lifted into orbit during the mission ‘Long March 6A | G60 Polar Group 01’, on board a Long March 6A space rocket.

The launch took place on Aug. 6, 2024, 6:42 a.m. from Launch Complex 9A.

For more information about the launch, click the button.

Launch to space Long March 6A | G60 Polar Group 01
Long March 6A | G60 Polar Group 01

Agency: N/A

Status: Launch Successful

Launch date: Aug. 6, 2024, 6:42 a.m. UTC

Rocket: Long March 6A

Launch pad: Launch Complex 9A

Location: Taiyuan Satellite Launch Center, People's Republic of China

...

Latest news about this satellite

News about space launch
Brightness of first Chinese broadband constellation satellites alarms astronomers

The first satellites of a Chinese broadband constellation are significantly brighter than those of Western systems, posing a new challenge for astronomers.

News about space launch
Chinese rocket stage breaks up into cloud of more than 700 pieces of space debris

HELSINKI — A Chinese Long March 6A rocket’s upper stage has fragmented into a cloud of over 700 pieces of space debris, adding to concerns about long-term orbital safety. China […]

News about space launch
China's Thousand Sails Megaconstellation Kicks Off with Dangerous Debris Field

China's Thousand Sails Megaconstellation Kicks Off with Dangerous Debris Field


Newsletter sign-up

Weekly statistics, charts and insights to help you stay on top of the space industry.